Year,Month,Day,Hour,Minute,Value (Times are PST for windgust in km/hr)
2015,11,19,00,00,17.70
2015,11,19,00,01,17.70
2015,11,19,00,02,20.90
2015,11,19,00,03,19.30
2015,11,19,00,04,20.90
2015,11,19,00,05,19.30
2015,11,19,00,06,17.70
2015,11,19,00,07,16.10
2015,11,19,00,08,17.70
2015,11,19,00,09,16.10
2015,11,19,00,10,16.10
2015,11,19,00,11,14.50
2015,11,19,00,12,17.70
2015,11,19,00,13,16.10
2015,11,19,00,14,14.50
2015,11,19,00,15,14.50
2015,11,19,00,16,12.90
2015,11,19,00,17,12.90
2015,11,19,00,18,12.90
2015,11,19,00,19,12.90
2015,11,19,00,20,12.90
2015,11,19,00,21,16.10
2015,11,19,00,22,17.70
2015,11,19,00,23,16.10
2015,11,19,00,24,17.70
2015,11,19,00,25,17.70
2015,11,19,00,26,16.10
2015,11,19,00,27,16.10
2015,11,19,00,28,16.10
2015,11,19,00,29,17.70
2015,11,19,00,30,16.10
2015,11,19,00,31,16.10
2015,11,19,00,32,16.10
2015,11,19,00,33,19.30
2015,11,19,00,34,17.70
2015,11,19,00,35,17.70
2015,11,19,00,36,17.70
2015,11,19,00,37,17.70
2015,11,19,00,38,19.30
2015,11,19,00,39,17.70
2015,11,19,00,40,20.90
2015,11,19,00,41,17.70
2015,11,19,00,42,19.30
2015,11,19,00,43,17.70
2015,11,19,00,44,19.30
2015,11,19,00,45,20.90
2015,11,19,00,46,19.30
2015,11,19,00,47,19.30
2015,11,19,00,48,19.30
2015,11,19,00,49,17.70
2015,11,19,00,50,17.70
2015,11,19,00,51,19.30
2015,11,19,00,52,17.70
2015,11,19,00,53,19.30
2015,11,19,00,54,19.30
2015,11,19,00,55,17.70
2015,11,19,00,56,17.70
2015,11,19,00,57,17.70
2015,11,19,00,58,17.70
2015,11,19,00,59,19.30
2015,11,19,01,00,17.70
2015,11,19,01,01,17.70
2015,11,19,01,02,17.70
2015,11,19,01,03,19.30
2015,11,19,01,04,20.90
2015,11,19,01,05,20.90
2015,11,19,01,06,22.50
2015,11,19,01,07,20.90
2015,11,19,01,08,17.70
2015,11,19,01,09,19.30
2015,11,19,01,10,17.70
2015,11,19,01,11,20.90
2015,11,19,01,12,20.90
2015,11,19,01,13,20.90
2015,11,19,01,14,20.90
2015,11,19,01,15,22.50
2015,11,19,01,16,20.90
2015,11,19,01,17,20.90
2015,11,19,01,18,20.90
2015,11,19,01,19,19.30
2015,11,19,01,20,22.50
2015,11,19,01,21,20.90
2015,11,19,01,22,20.90
2015,11,19,01,23,17.70
2015,11,19,01,24,20.90
2015,11,19,01,25,20.90
2015,11,19,01,26,20.90
2015,11,19,01,27,19.30
2015,11,19,01,28,22.50
2015,11,19,01,29,22.50
2015,11,19,01,30,20.90
2015,11,19,01,31,20.90
2015,11,19,01,32,19.30
2015,11,19,01,33,20.90
2015,11,19,01,34,19.30
2015,11,19,01,35,19.30
2015,11,19,01,36,22.50
2015,11,19,01,37,24.20
2015,11,19,01,38,20.90
2015,11,19,01,39,20.90
2015,11,19,01,40,19.30
2015,11,19,01,41,19.30
2015,11,19,01,42,19.30
2015,11,19,01,43,17.70
2015,11,19,01,44,19.30
2015,11,19,01,45,19.30
2015,11,19,01,46,17.70
2015,11,19,01,47,20.90
2015,11,19,01,48,19.30
2015,11,19,01,49,17.70
2015,11,19,01,50,19.30
2015,11,19,01,51,19.30
2015,11,19,01,52,17.70
2015,11,19,01,53,20.90
2015,11,19,01,54,19.30
2015,11,19,01,55,19.30
2015,11,19,01,56,16.10
2015,11,19,01,57,17.70
2015,11,19,01,58,17.70
2015,11,19,01,59,17.70
2015,11,19,02,00,17.70
2015,11,19,02,01,20.90
2015,11,19,02,02,19.30
2015,11,19,02,03,16.10
2015,11,19,02,04,16.10
2015,11,19,02,05,17.70
2015,11,19,02,06,17.70
2015,11,19,02,07,19.30
2015,11,19,02,08,17.70
2015,11,19,02,09,19.30
2015,11,19,02,10,17.70
2015,11,19,02,11,17.70
2015,11,19,02,12,19.30
2015,11,19,02,13,17.70
2015,11,19,02,14,19.30
2015,11,19,02,15,19.30
2015,11,19,02,16,20.90
2015,11,19,02,17,19.30
2015,11,19,02,18,19.30
2015,11,19,02,19,22.50
2015,11,19,02,20,22.50
2015,11,19,02,21,20.90
2015,11,19,02,22,22.50
2015,11,19,02,23,20.90
2015,11,19,02,24,19.30
2015,11,19,02,25,16.10
2015,11,19,02,26,14.50
2015,11,19,02,27,14.50
2015,11,19,02,28,14.50
2015,11,19,02,29,14.50
2015,11,19,02,30,14.50
2015,11,19,02,31,19.30
2015,11,19,02,32,17.70
2015,11,19,02,33,19.30
2015,11,19,02,34,20.90
2015,11,19,02,35,22.50
2015,11,19,02,36,20.90
2015,11,19,02,37,25.70
2015,11,19,02,38,24.20
2015,11,19,02,39,17.70
2015,11,19,02,40,22.50
2015,11,19,02,41,19.30
2015,11,19,02,42,22.50
2015,11,19,02,43,20.90
2015,11,19,02,44,20.90
2015,11,19,02,45,22.50
2015,11,19,02,46,20.90
2015,11,19,02,47,17.70
2015,11,19,02,48,16.10
2015,11,19,02,49,19.30
2015,11,19,02,50,19.30
2015,11,19,02,51,19.30
2015,11,19,02,52,17.70
2015,11,19,02,53,19.30
2015,11,19,02,54,20.90
2015,11,19,02,55,20.90
2015,11,19,02,56,24.20
2015,11,19,02,57,24.20
2015,11,19,02,58,22.50
2015,11,19,02,59,19.30
2015,11,19,03,00,17.70
2015,11,19,03,01,20.90
2015,11,19,03,02,20.90
2015,11,19,03,03,20.90
2015,11,19,03,04,20.90
2015,11,19,03,05,20.90
2015,11,19,03,06,22.50
2015,11,19,03,07,24.20
2015,11,19,03,08,24.20
2015,11,19,03,09,22.50
2015,11,19,03,10,24.20
2015,11,19,03,11,20.90
2015,11,19,03,12,24.20
2015,11,19,03,13,24.20
2015,11,19,03,14,24.20
2015,11,19,03,15,25.70
2015,11,19,03,16,25.70
2015,11,19,03,17,24.20
2015,11,19,03,18,20.90
2015,11,19,03,19,22.50
2015,11,19,03,20,20.90
2015,11,19,03,21,17.70
2015,11,19,03,22,19.30
2015,11,19,03,23,20.90
2015,11,19,03,24,20.90
2015,11,19,03,25,24.20
2015,11,19,03,26,25.70
2015,11,19,03,27,24.20
2015,11,19,03,28,24.20
2015,11,19,03,29,24.20
2015,11,19,03,30,20.90
2015,11,19,03,31,25.70
2015,11,19,03,32,20.90
2015,11,19,03,33,19.30
2015,11,19,03,34,19.30
2015,11,19,03,35,20.90
2015,11,19,03,36,22.50
2015,11,19,03,37,24.20
2015,11,19,03,38,22.50
2015,11,19,03,39,22.50
2015,11,19,03,40,22.50
2015,11,19,03,41,22.50
2015,11,19,03,42,24.20
2015,11,19,03,43,24.20
2015,11,19,03,44,24.20
2015,11,19,03,45,22.50
2015,11,19,03,46,17.70
2015,11,19,03,47,22.50
2015,11,19,03,48,20.90
2015,11,19,03,49,20.90
2015,11,19,03,50,25.70
2015,11,19,03,51,27.40
2015,11,19,03,52,24.20
2015,11,19,03,53,20.90
2015,11,19,03,54,22.50
2015,11,19,03,55,22.50
2015,11,19,03,56,24.20
2015,11,19,03,57,20.90
2015,11,19,03,58,20.90
2015,11,19,03,59,20.90
2015,11,19,04,00,22.50
2015,11,19,04,01,22.50
2015,11,19,04,02,20.90
2015,11,19,04,03,22.50
2015,11,19,04,04,22.50
2015,11,19,04,05,24.20
2015,11,19,04,06,22.50
2015,11,19,04,07,19.30
2015,11,19,04,08,20.90
2015,11,19,04,09,24.20
2015,11,19,04,10,20.90
2015,11,19,04,11,22.50
2015,11,19,04,12,19.30
2015,11,19,04,13,19.30
2015,11,19,04,14,16.10
2015,11,19,04,15,16.10
2015,11,19,04,16,16.10
2015,11,19,04,17,14.50
2015,11,19,04,18,16.10
2015,11,19,04,19,16.10
2015,11,19,04,20,17.70
2015,11,19,04,21,20.90
2015,11,19,04,22,19.30
2015,11,19,04,23,17.70
2015,11,19,04,24,25.70
2015,11,19,04,25,20.90
2015,11,19,04,26,29.00
2015,11,19,04,27,30.60
2015,11,19,04,28,32.20
2015,11,19,04,29,24.20
2015,11,19,04,30,29.00
2015,11,19,04,31,30.60
2015,11,19,04,32,25.70
2015,11,19,04,33,25.70
2015,11,19,04,34,25.70
2015,11,19,04,35,27.40
2015,11,19,04,36,29.00
2015,11,19,04,37,27.40
2015,11,19,04,38,27.40
2015,11,19,04,39,27.40
2015,11,19,04,40,25.70
2015,11,19,04,41,30.60
2015,11,19,04,42,25.70
2015,11,19,04,43,30.60
2015,11,19,04,44,29.00
2015,11,19,04,45,32.20
2015,11,19,04,46,29.00
2015,11,19,04,47,30.60
2015,11,19,04,48,25.70
2015,11,19,04,49,29.00
2015,11,19,04,50,30.60
2015,11,19,04,51,29.00
2015,11,19,04,52,30.60
2015,11,19,04,53,30.60
2015,11,19,04,54,30.60
2015,11,19,04,55,27.40
2015,11,19,04,56,30.60
2015,11,19,04,57,27.40
2015,11,19,04,58,29.00
2015,11,19,04,59,30.60
2015,11,19,05,00,29.00
2015,11,19,05,01,29.00
2015,11,19,05,02,33.80
2015,11,19,05,03,32.20
2015,11,19,05,04,32.20
2015,11,19,05,05,29.00
2015,11,19,05,06,32.20
2015,11,19,05,07,32.20
2015,11,19,05,08,35.40
2015,11,19,05,09,32.20
2015,11,19,05,10,25.70
2015,11,19,05,11,27.40
2015,11,19,05,12,29.00
2015,11,19,05,13,29.00
2015,11,19,05,14,32.20
2015,11,19,05,15,30.60
2015,11,19,05,16,33.80
2015,11,19,05,17,33.80
2015,11,19,05,18,30.60
2015,11,19,05,19,25.70
2015,11,19,05,20,27.40
2015,11,19,05,21,25.70
2015,11,19,05,22,30.60
2015,11,19,05,23,29.00
2015,11,19,05,24,29.00
2015,11,19,05,25,30.60
2015,11,19,05,26,27.40
2015,11,19,05,27,24.20
2015,11,19,05,28,35.40
2015,11,19,05,29,33.80
2015,11,19,05,30,29.00
2015,11,19,05,31,25.70
2015,11,19,05,32,30.60
2015,11,19,05,33,32.20
2015,11,19,05,34,27.40
2015,11,19,05,35,32.20
2015,11,19,05,36,37.00
2015,11,19,05,37,35.40
2015,11,19,05,38,35.40
2015,11,19,05,39,33.80
2015,11,19,05,40,32.20
2015,11,19,05,41,32.20
2015,11,19,05,42,32.20
2015,11,19,05,43,30.60
2015,11,19,05,44,33.80
2015,11,19,05,45,33.80
2015,11,19,05,46,30.60
2015,11,19,05,47,37.00
2015,11,19,05,48,37.00
2015,11,19,05,49,32.20
2015,11,19,05,50,35.40
2015,11,19,05,51,35.40
2015,11,19,05,52,37.00
2015,11,19,05,53,33.80
2015,11,19,05,54,33.80
2015,11,19,05,55,33.80
2015,11,19,05,56,33.80
2015,11,19,05,57,38.60
2015,11,19,05,58,41.80
2015,11,19,05,59,40.20
2015,11,19,06,00,38.60
2015,11,19,06,01,30.60
2015,11,19,06,02,32.20
2015,11,19,06,03,35.40
2015,11,19,06,04,32.20
2015,11,19,06,05,32.20
2015,11,19,06,06,30.60
2015,11,19,06,07,37.00
2015,11,19,06,08,35.40
2015,11,19,06,09,30.60
2015,11,19,06,10,33.80
2015,11,19,06,11,37.00
2015,11,19,06,12,38.60
2015,11,19,06,13,40.20
2015,11,19,06,14,35.40
2015,11,19,06,15,32.20
2015,11,19,06,16,35.40
2015,11,19,06,17,33.80
2015,11,19,06,18,30.60
2015,11,19,06,19,29.00
2015,11,19,06,20,37.00
2015,11,19,06,21,38.60
2015,11,19,06,22,33.80
2015,11,19,06,23,32.20
2015,11,19,06,24,35.40
2015,11,19,06,25,38.60
2015,11,19,06,26,38.60
2015,11,19,06,27,32.20
2015,11,19,06,28,25.70
2015,11,19,06,29,32.20
2015,11,19,06,30,29.00
2015,11,19,06,31,29.00
2015,11,19,06,32,30.60
2015,11,19,06,33,30.60
2015,11,19,06,34,27.40
2015,11,19,06,35,32.20
2015,11,19,06,36,33.80
2015,11,19,06,37,30.60
2015,11,19,06,38,30.60
2015,11,19,06,39,29.00
2015,11,19,06,40,30.60
2015,11,19,06,41,38.60
2015,11,19,06,42,33.80
2015,11,19,06,43,37.00
2015,11,19,06,44,32.20
2015,11,19,06,45,29.00
2015,11,19,06,46,30.60
2015,11,19,06,47,37.00
2015,11,19,06,48,37.00
2015,11,19,06,49,30.60
2015,11,19,06,50,29.00
2015,11,19,06,51,40.20
2015,11,19,06,52,37.00
2015,11,19,06,53,32.20
2015,11,19,06,54,37.00
2015,11,19,06,55,35.40
2015,11,19,06,56,32.20
2015,11,19,06,57,30.60
2015,11,19,06,58,30.60
2015,11,19,06,59,37.00
2015,11,19,07,00,33.80
2015,11,19,07,01,33.80
2015,11,19,07,02,32.20
2015,11,19,07,03,35.40
2015,11,19,07,04,32.20
2015,11,19,07,05,32.20
2015,11,19,07,06,33.80
2015,11,19,07,07,38.60
2015,11,19,07,08,30.60
2015,11,19,07,09,33.80
2015,11,19,07,10,35.40
2015,11,19,07,11,37.00
2015,11,19,07,12,37.00
2015,11,19,07,13,35.40
2015,11,19,07,14,35.40
2015,11,19,07,15,37.00
2015,11,19,07,16,29.00
2015,11,19,07,17,29.00
2015,11,19,07,18,30.60
2015,11,19,07,19,30.60
2015,11,19,07,20,25.70
2015,11,19,07,21,30.60
2015,11,19,07,22,37.00
2015,11,19,07,23,32.20
2015,11,19,07,24,27.40
2015,11,19,07,25,30.60
2015,11,19,07,26,27.40
2015,11,19,07,27,27.40
2015,11,19,07,28,32.20
2015,11,19,07,29,30.60
2015,11,19,07,30,33.80
2015,11,19,07,31,33.80
2015,11,19,07,32,29.00
2015,11,19,07,33,32.20
2015,11,19,07,34,32.20
2015,11,19,07,35,24.20
2015,11,19,07,36,29.00
2015,11,19,07,37,25.70
2015,11,19,07,38,33.80
2015,11,19,07,39,32.20
2015,11,19,07,40,27.40
2015,11,19,07,41,29.00
2015,11,19,07,42,27.40
2015,11,19,07,43,33.80
2015,11,19,07,44,35.40
2015,11,19,07,45,33.80
2015,11,19,07,46,35.40
2015,11,19,07,47,30.60
2015,11,19,07,48,25.70
2015,11,19,07,49,27.40
2015,11,19,07,50,30.60
2015,11,19,07,51,29.00
2015,11,19,07,52,27.40
2015,11,19,07,53,32.20
2015,11,19,07,54,33.80
2015,11,19,07,55,30.60
2015,11,19,07,56,27.40
2015,11,19,07,57,27.40
2015,11,19,07,58,25.70
2015,11,19,07,59,22.50
2015,11,19,08,00,24.20
2015,11,19,08,01,30.60
2015,11,19,08,02,25.70
2015,11,19,08,03,24.20
2015,11,19,08,04,22.50
2015,11,19,08,05,25.70
2015,11,19,08,06,25.70
2015,11,19,08,07,29.00
2015,11,19,08,08,27.40
2015,11,19,08,09,29.00
2015,11,19,08,10,25.70
2015,11,19,08,11,27.40
2015,11,19,08,12,29.00
2015,11,19,08,13,25.70
2015,11,19,08,14,30.60
2015,11,19,08,15,27.40
2015,11,19,08,16,27.40
2015,11,19,08,17,29.00
2015,11,19,08,18,30.60
2015,11,19,08,19,30.60
2015,11,19,08,20,29.00
2015,11,19,08,21,24.20
2015,11,19,08,22,27.40
2015,11,19,08,23,22.50
2015,11,19,08,24,20.90
2015,11,19,08,25,20.90
2015,11,19,08,26,25.70
2015,11,19,08,27,24.20
2015,11,19,08,28,27.40
2015,11,19,08,29,22.50
2015,11,19,08,30,29.00
2015,11,19,08,31,30.60
2015,11,19,08,32,27.40
2015,11,19,08,33,22.50
2015,11,19,08,34,20.90
2015,11,19,08,35,27.40
2015,11,19,08,36,19.30
2015,11,19,08,37,27.40
2015,11,19,08,38,27.40
2015,11,19,08,39,22.50
2015,11,19,08,40,24.20
2015,11,19,08,41,25.70
2015,11,19,08,42,20.90
2015,11,19,08,43,17.70
2015,11,19,08,44,16.10
2015,11,19,08,45,24.20
2015,11,19,08,46,30.60
2015,11,19,08,47,29.00
2015,11,19,08,48,27.40
2015,11,19,08,49,27.40
2015,11,19,08,50,24.20
2015,11,19,08,51,24.20
2015,11,19,08,52,25.70
2015,11,19,08,53,24.20
2015,11,19,08,54,29.00
2015,11,19,08,55,32.20
2015,11,19,08,56,32.20
2015,11,19,08,57,35.40
2015,11,19,08,58,32.20
2015,11,19,08,59,35.40
2015,11,19,09,00,35.40
2015,11,19,09,01,32.20
2015,11,19,09,02,38.60
2015,11,19,09,03,33.80
2015,11,19,09,04,33.80
2015,11,19,09,05,33.80
2015,11,19,09,06,33.80
2015,11,19,09,07,33.80
2015,11,19,09,08,33.80
2015,11,19,09,09,33.80
2015,11,19,09,10,33.80
2015,11,19,09,11,33.80
2015,11,19,09,12,33.80
2015,11,19,09,13,33.80
2015,11,19,10,37,37.00
2015,11,19,10,38,38.60
2015,11,19,10,39,38.60
2015,11,19,10,40,40.20
2015,11,19,10,41,41.80
2015,11,19,10,42,40.20
2015,11,19,10,43,37.00
2015,11,19,10,44,38.60
2015,11,19,10,45,37.00
2015,11,19,10,46,41.80
2015,11,19,10,47,38.60
2015,11,19,10,48,40.20
2015,11,19,10,49,40.20
2015,11,19,10,50,35.40
2015,11,19,10,51,35.40
2015,11,19,10,52,35.40
2015,11,19,10,53,33.80
2015,11,19,10,54,35.40
2015,11,19,10,55,37.00
2015,11,19,10,56,43.50
2015,11,19,10,57,38.60
2015,11,19,10,58,33.80
2015,11,19,10,59,37.00
2015,11,19,11,00,35.40
2015,11,19,11,01,37.00
2015,11,19,11,02,33.80
2015,11,19,11,03,37.00
2015,11,19,11,04,33.80
2015,11,19,11,05,37.00
2015,11,19,11,06,38.60
2015,11,19,11,07,35.40
2015,11,19,11,08,35.40
2015,11,19,11,09,37.00
2015,11,19,11,10,35.40
2015,11,19,11,11,35.40
2015,11,19,11,12,37.00
2015,11,19,11,13,38.60
2015,11,19,11,14,35.40
2015,11,19,11,15,35.40
2015,11,19,11,16,37.00
2015,11,19,11,17,37.00
2015,11,19,11,18,35.40
2015,11,19,11,19,38.60
2015,11,19,11,20,35.40
2015,11,19,11,21,33.80
2015,11,19,11,22,35.40
2015,11,19,11,23,32.20
2015,11,19,11,24,33.80
2015,11,19,11,25,37.00
2015,11,19,11,26,37.00
2015,11,19,11,27,38.60
2015,11,19,11,28,35.40
2015,11,19,11,29,32.20
2015,11,19,11,30,33.80
2015,11,19,11,31,35.40
2015,11,19,11,32,35.40
2015,11,19,11,33,33.80
2015,11,19,11,34,25.70
2015,11,19,11,35,35.40
2015,11,19,11,36,37.00
2015,11,19,11,37,33.80
2015,11,19,11,38,33.80
2015,11,19,11,39,33.80
2015,11,19,11,40,33.80
2015,11,19,11,41,33.80
2015,11,19,11,42,33.80
2015,11,19,11,43,33.80
2015,11,19,11,44,33.80
2015,11,19,11,45,33.80
2015,11,19,11,46,33.80
2015,11,19,11,47,33.80
2015,11,19,12,04,24.20
2015,11,19,12,05,24.20
2015,11,19,12,06,25.70
2015,11,19,12,07,27.40
2015,11,19,12,08,30.60
2015,11,19,12,09,29.00
2015,11,19,12,10,25.70
2015,11,19,12,11,25.70
2015,11,19,12,12,25.70
2015,11,19,12,13,24.20
2015,11,19,12,14,25.70
2015,11,19,12,15,24.20
2015,11,19,12,16,20.90
2015,11,19,12,17,24.20
2015,11,19,12,18,22.50
2015,11,19,12,19,24.20
2015,11,19,12,20,19.30
2015,11,19,12,21,14.50
2015,11,19,12,22,16.10
2015,11,19,12,23,20.90
2015,11,19,12,24,20.90
2015,11,19,12,25,22.50
2015,11,19,12,26,27.40
2015,11,19,12,27,27.40
2015,11,19,12,28,22.50
2015,11,19,12,29,22.50
2015,11,19,12,30,19.30
2015,11,19,12,31,20.90
2015,11,19,12,32,20.90
2015,11,19,12,33,19.30
2015,11,19,12,34,20.90
2015,11,19,12,35,27.40
2015,11,19,12,36,19.30
2015,11,19,12,37,17.70
2015,11,19,12,38,19.30
2015,11,19,12,39,22.50
2015,11,19,12,40,20.90
2015,11,19,12,41,17.70
2015,11,19,12,42,19.30
2015,11,19,12,43,20.90
2015,11,19,12,44,20.90
2015,11,19,12,45,19.30
2015,11,19,12,46,19.30
2015,11,19,12,47,25.70
2015,11,19,12,48,20.90
2015,11,19,12,49,19.30
2015,11,19,12,50,22.50
2015,11,19,12,51,24.20
2015,11,19,12,52,22.50
2015,11,19,12,53,22.50
2015,11,19,12,54,20.90
2015,11,19,12,55,19.30
2015,11,19,12,56,19.30
2015,11,19,12,57,22.50
2015,11,19,12,58,24.20
2015,11,19,12,59,25.70
2015,11,19,13,00,24.20
2015,11,19,13,01,29.00
2015,11,19,13,02,27.40
2015,11,19,13,03,27.40
2015,11,19,13,04,27.40
2015,11,19,13,05,25.70
2015,11,19,13,06,24.20
2015,11,19,13,07,25.70
2015,11,19,13,08,27.40
2015,11,19,13,09,27.40
2015,11,19,13,10,20.90
2015,11,19,13,11,25.70
2015,11,19,13,12,24.20
2015,11,19,13,13,19.30
2015,11,19,13,14,19.30
2015,11,19,13,15,24.20
2015,11,19,13,16,29.00
2015,11,19,13,17,27.40
2015,11,19,13,18,24.20
2015,11,19,13,19,27.40
2015,11,19,13,20,27.40
2015,11,19,13,21,27.40
2015,11,19,13,22,20.90
2015,11,19,13,23,25.70
2015,11,19,13,24,32.20
2015,11,19,13,25,29.00
2015,11,19,13,26,29.00
2015,11,19,13,27,25.70
2015,11,19,13,28,25.70
2015,11,19,13,29,29.00
2015,11,19,13,30,25.70
2015,11,19,13,31,30.60
2015,11,19,13,32,29.00
2015,11,19,13,33,30.60
2015,11,19,13,34,30.60
2015,11,19,13,35,30.60
2015,11,19,13,36,30.60
2015,11,19,13,37,29.00
2015,11,19,13,38,25.70
2015,11,19,13,39,25.70
2015,11,19,13,40,24.20
2015,11,19,13,41,24.20
2015,11,19,13,42,22.50
2015,11,19,13,43,24.20
2015,11,19,13,44,25.70
2015,11,19,13,45,22.50
2015,11,19,13,46,24.20
2015,11,19,13,47,27.40
2015,11,19,13,48,27.40
2015,11,19,13,49,25.70
2015,11,19,13,50,25.70
2015,11,19,13,51,25.70
2015,11,19,13,52,27.40
2015,11,19,13,53,27.40
2015,11,19,13,54,29.00
2015,11,19,13,55,30.60
2015,11,19,13,56,27.40
2015,11,19,13,57,29.00
2015,11,19,13,58,25.70
2015,11,19,13,59,29.00
2015,11,19,14,00,30.60
2015,11,19,14,01,25.70
2015,11,19,14,02,22.50
2015,11,19,14,03,24.20
2015,11,19,14,04,29.00
2015,11,19,14,05,24.20
2015,11,19,14,06,22.50
2015,11,19,14,07,25.70
2015,11,19,14,08,25.70
2015,11,19,14,09,24.20
2015,11,19,14,10,24.20
2015,11,19,14,11,24.20
2015,11,19,14,12,27.40
2015,11,19,14,13,25.70
2015,11,19,14,14,25.70
2015,11,19,14,15,25.70
2015,11,19,14,16,24.20
2015,11,19,14,17,27.40
2015,11,19,14,18,24.20
2015,11,19,14,19,24.20
2015,11,19,14,20,25.70
2015,11,19,14,21,27.40
2015,11,19,14,22,27.40
2015,11,19,14,23,24.20
2015,11,19,14,24,22.50
2015,11,19,14,25,27.40
2015,11,19,14,26,27.40
2015,11,19,14,27,24.20
2015,11,19,14,28,20.90
2015,11,19,14,29,22.50
2015,11,19,14,30,27.40
2015,11,19,14,31,27.40
2015,11,19,14,32,24.20
2015,11,19,14,33,22.50
2015,11,19,14,34,20.90
2015,11,19,14,35,25.70
2015,11,19,14,36,24.20
2015,11,19,14,37,25.70
2015,11,19,14,38,20.90
2015,11,19,14,39,20.90
2015,11,19,14,40,20.90
2015,11,19,14,41,19.30
2015,11,19,14,42,19.30
2015,11,19,14,43,17.70
2015,11,19,14,44,16.10
2015,11,19,14,45,19.30
2015,11,19,14,46,19.30
2015,11,19,14,47,19.30
2015,11,19,14,48,20.90
2015,11,19,14,49,19.30
2015,11,19,14,50,19.30
2015,11,19,14,51,19.30
2015,11,19,14,52,17.70
2015,11,19,14,53,20.90
2015,11,19,14,54,17.70
2015,11,19,14,55,17.70
2015,11,19,14,56,16.10
2015,11,19,14,57,20.90
2015,11,19,14,58,19.30
2015,11,19,14,59,19.30
2015,11,19,15,00,19.30
2015,11,19,15,01,17.70
2015,11,19,15,02,19.30
2015,11,19,15,03,17.70
2015,11,19,15,04,17.70
2015,11,19,15,05,16.10
2015,11,19,15,06,17.70
2015,11,19,15,07,19.30
2015,11,19,15,08,19.30
2015,11,19,15,09,20.90
2015,11,19,15,10,20.90
2015,11,19,15,11,22.50
2015,11,19,15,12,20.90
2015,11,19,15,13,20.90
2015,11,19,15,14,22.50
2015,11,19,15,15,20.90
2015,11,19,15,16,22.50
2015,11,19,15,17,20.90
2015,11,19,15,18,22.50
2015,11,19,15,19,20.90
2015,11,19,15,20,22.50
2015,11,19,15,21,22.50
2015,11,19,15,22,20.90
2015,11,19,15,23,19.30
2015,11,19,15,24,17.70
2015,11,19,15,25,16.10
2015,11,19,15,26,16.10
2015,11,19,15,27,19.30
2015,11,19,15,28,19.30
2015,11,19,15,29,19.30
2015,11,19,15,30,19.30
2015,11,19,15,31,19.30
2015,11,19,15,32,19.30
2015,11,19,15,33,19.30
2015,11,19,15,34,19.30
2015,11,19,15,35,16.10
2015,11,19,15,36,17.70
2015,11,19,15,37,17.70
2015,11,19,15,38,16.10
2015,11,19,15,39,14.50
2015,11,19,15,40,16.10
2015,11,19,15,41,16.10
2015,11,19,15,42,19.30
2015,11,19,15,43,19.30
2015,11,19,15,44,19.30
2015,11,19,15,45,20.90
2015,11,19,15,46,19.30
2015,11,19,15,47,17.70
2015,11,19,15,48,19.30
2015,11,19,15,49,17.70
2015,11,19,15,50,19.30
2015,11,19,15,51,19.30
2015,11,19,15,52,19.30
2015,11,19,15,53,17.70
2015,11,19,15,54,16.10
2015,11,19,15,55,16.10
2015,11,19,15,56,16.10
2015,11,19,15,57,17.70
2015,11,19,15,58,16.10
2015,11,19,15,59,14.50
2015,11,19,16,00,17.70
2015,11,19,16,01,16.10
2015,11,19,16,02,17.70
2015,11,19,16,03,16.10
2015,11,19,16,04,14.50
2015,11,19,16,05,16.10
2015,11,19,16,06,16.10
2015,11,19,16,07,14.50
2015,11,19,16,08,12.90
2015,11,19,16,09,11.30
2015,11,19,16,10,11.30
2015,11,19,16,11,11.30
2015,11,19,16,12,11.30
2015,11,19,16,13,9.60
2015,11,19,16,14,9.60
2015,11,19,16,15,9.60
2015,11,19,16,16,9.60
2015,11,19,16,17,9.60
2015,11,19,16,18,8.10
2015,11,19,16,19,6.40
2015,11,19,16,20,8.10
2015,11,19,16,21,8.10
2015,11,19,16,22,6.40
2015,11,19,16,23,8.10
2015,11,19,16,24,8.10
2015,11,19,16,25,8.10
2015,11,19,16,26,9.60
2015,11,19,16,27,17.70
2015,11,19,16,28,16.10
2015,11,19,16,29,12.90
2015,11,19,16,30,12.90
2015,11,19,16,31,11.30
2015,11,19,16,32,12.90
2015,11,19,16,33,14.50
2015,11,19,16,34,14.50
2015,11,19,16,35,16.10
2015,11,19,16,36,17.70
2015,11,19,16,37,19.30
2015,11,19,16,38,17.70
2015,11,19,16,39,19.30
2015,11,19,16,40,17.70
2015,11,19,16,41,17.70
2015,11,19,16,42,19.30
2015,11,19,16,43,19.30
2015,11,19,16,44,17.70
2015,11,19,16,45,17.70
2015,11,19,16,46,16.10
2015,11,19,16,47,17.70
2015,11,19,16,48,16.10
2015,11,19,16,49,17.70
2015,11,19,16,50,19.30
2015,11,19,16,51,17.70
2015,11,19,16,52,17.70
2015,11,19,16,53,16.10
2015,11,19,16,54,17.70
2015,11,19,16,55,17.70
2015,11,19,16,56,17.70
2015,11,19,16,57,17.70
2015,11,19,16,58,19.30
2015,11,19,16,59,17.70
2015,11,19,17,00,17.70
2015,11,19,17,01,17.70
2015,11,19,17,02,16.10
2015,11,19,17,03,17.70
2015,11,19,17,04,17.70
2015,11,19,17,05,17.70
2015,11,19,17,06,16.10
2015,11,19,17,07,14.50
2015,11,19,17,08,14.50
2015,11,19,17,09,16.10
2015,11,19,17,10,16.10
2015,11,19,17,11,16.10
2015,11,19,17,12,16.10
2015,11,19,17,13,16.10
2015,11,19,17,14,16.10
2015,11,19,17,15,14.50
2015,11,19,17,16,14.50
2015,11,19,17,17,16.10
2015,11,19,17,18,16.10
2015,11,19,17,19,16.10
2015,11,19,17,20,14.50
2015,11,19,17,21,14.50
2015,11,19,17,22,14.50
2015,11,19,17,23,12.90
2015,11,19,17,24,12.90
2015,11,19,17,25,14.50
2015,11,19,17,26,12.90
2015,11,19,17,27,11.30
2015,11,19,17,28,11.30
2015,11,19,17,29,14.50
2015,11,19,17,30,14.50
2015,11,19,17,31,12.90
2015,11,19,17,32,12.90
2015,11,19,17,33,17.70
2015,11,19,17,34,17.70
2015,11,19,17,35,17.70
2015,11,19,17,36,17.70
2015,11,19,17,37,16.10
2015,11,19,17,38,14.50
2015,11,19,17,39,14.50
2015,11,19,17,40,12.90
2015,11,19,17,41,14.50
2015,11,19,17,42,16.10
2015,11,19,17,43,14.50
2015,11,19,17,44,9.60
2015,11,19,17,45,8.10
2015,11,19,17,46,9.60
2015,11,19,17,47,9.60
2015,11,19,17,48,8.10
2015,11,19,17,49,6.40
2015,11,19,17,50,4.80
2015,11,19,17,51,4.80
2015,11,19,17,52,4.80
2015,11,19,17,53,4.80
2015,11,19,17,54,4.80
2015,11,19,17,55,9.60
2015,11,19,17,56,8.10
2015,11,19,17,57,8.10
2015,11,19,17,58,8.10
2015,11,19,17,59,11.30
2015,11,19,18,00,8.10
2015,11,19,18,01,9.60
2015,11,19,18,02,12.90
2015,11,19,18,03,12.90
2015,11,19,18,04,11.30
2015,11,19,18,05,9.60
2015,11,19,18,06,9.60
2015,11,19,18,07,9.60
2015,11,19,18,08,9.60
2015,11,19,18,09,12.90
2015,11,19,18,10,12.90
2015,11,19,18,11,9.60
2015,11,19,18,12,9.60
2015,11,19,18,13,9.60
2015,11,19,18,14,9.60
2015,11,19,18,15,9.60
2015,11,19,18,16,8.10
2015,11,19,18,17,8.10
2015,11,19,18,18,8.10
2015,11,19,18,19,8.10
2015,11,19,18,20,8.10
2015,11,19,18,21,8.10
2015,11,19,18,22,9.60
2015,11,19,18,23,9.60
2015,11,19,18,24,9.60
2015,11,19,18,25,11.30
2015,11,19,18,26,11.30
2015,11,19,18,27,11.30
2015,11,19,18,28,12.90
2015,11,19,18,29,11.30
2015,11,19,18,30,11.30
2015,11,19,18,31,11.30
2015,11,19,18,32,11.30
2015,11,19,18,33,11.30
2015,11,19,18,34,11.30
2015,11,19,18,35,12.90
2015,11,19,18,36,12.90
2015,11,19,18,37,12.90
2015,11,19,18,38,12.90
2015,11,19,18,39,11.30
2015,11,19,18,40,11.30
2015,11,19,18,41,11.30
2015,11,19,18,42,11.30
2015,11,19,18,43,9.60
2015,11,19,18,44,9.60
2015,11,19,18,45,8.10
2015,11,19,18,46,8.10
2015,11,19,18,47,8.10
2015,11,19,18,48,8.10
2015,11,19,18,49,8.10
2015,11,19,18,50,8.10
2015,11,19,18,51,8.10
2015,11,19,18,52,8.10
2015,11,19,18,53,8.10
2015,11,19,18,54,8.10
2015,11,19,18,55,9.60
2015,11,19,18,56,9.60
2015,11,19,18,57,9.60
2015,11,19,18,58,9.60
2015,11,19,18,59,9.60
2015,11,19,19,00,9.60
2015,11,19,19,01,9.60